Content
SEND FEEDBACK

Daily
Averages
Monthly
Summary
United States of America

STATEN ISLAND, NEW YORK


Home > North America > United States > New York
Elevation: 152 feet     Latitude: 40 35N     Longitude: 074 09W

WEATHER
 
SELECT A DAY
Number of Records: 193,900;   Date Range: 1/1/95 - 12/17/14
 
SHARE

PRINT THIS DATA

[ ← Previous Day ]
WEATHER ALMANAC - JUNE 20, 2013
[ Next Day → ]
[ °C ]   °F
We're sorry. There is no daily almanac available for Staten Island, New York on June 20, 2013.
WEATHER BY HOUR - JUNE 20, 2013
[ °C ]   °F
Local TimeTemperatureDewpointHumidityBarometerVisibilityWind DirectionWind SpeedGust SpeedPrecipitationEventsConditions
1:51 AM62.1 °F52.0 °F70 %30.19 in10.0 miSSW (210°)5.8 mphClear
2:51 AM63.0 °F53.1 °F70 %30.19 in10.0 miSSE (150°)3.5 mphClear
3:51 AM63.0 °F52.0 °F67 %30.20 in10.0 miSSW (200°)3.5 mphScattered Clouds
4:51 AM60.1 °F52.0 °F75 %30.21 in10.0 miSSW (210°)3.5 mphPartly Cloudy
5:51 AM60.1 °F53.1 °F78 %30.22 in10.0 miSW (220°)3.5 mphPartly Cloudy
6:51 AM64.0 °F54.0 °F70 %30.25 in10.0 miSW (230°)4.6 mphPartly Cloudy
7:51 AM66.0 °F54.0 °F65 %30.26 in10.0 miSW (230°)4.6 mphClear
8:51 AM70.0 °F55.9 °F61 %30.26 in10.0 miWest (270°)6.9 mphClear
9:51 AM73.0 °F53.1 °F49 %30.26 in10.0 miSW (230°)9.2 mphClear
10:51 AM75.0 °F54.0 °F48 %30.27 in10.0 miWSW (240°)9.2 mphPartly Cloudy
11:51 AM77.0 °F55.9 °F48 %30.26 in10.0 miSW (220°)6.9 mphPartly Cloudy
12:51 PM75.0 °F55.9 °F51 %30.25 in10.0 miSW (220°)6.9 mphPartly Cloudy
1:51 PM78.1 °F54.0 °F43 %30.25 in10.0 miSouth (180°)10.4 mphScattered Clouds
2:51 PM78.1 °F54.0 °F43 %30.23 in10.0 miSSE (160°)5.8 mphScattered Clouds
3:51 PM79.0 °F55.9 °F45 %30.23 in10.0 miSouth (170°)8.1 mphScattered Clouds
4:51 PM78.1 °F55.0 °F45 %30.22 in10.0 miSSE (160°)6.9 mphScattered Clouds
5:51 PM77.0 °F55.0 °F47 %30.22 in10.0 miSSE (150°)11.5 mph17.3 mphPartly Cloudy
6:51 PM77.0 °F55.0 °F47 %30.22 in10.0 miSSE (160°)15.0 mph20.7 mphPartly Cloudy
7:51 PM75.0 °F54.0 °F48 %30.23 in10.0 miSouth (180°)11.5 mphScattered Clouds
8:51 PM73.0 °F55.0 °F53 %30.23 in10.0 miSouth (190°)11.5 mphPartly Cloudy
9:51 PM71.1 °F53.1 °F53 %30.25 in10.0 miSouth (190°)11.5 mphPartly Cloudy
10:51 PM69.1 °F52.0 °F54 %30.26 in10.0 miSSW (200°)10.4 mphPartly Cloudy
11:51 PM66.9 °F48.9 °F52 %30.27 in10.0 miSSW (200°)9.2 mphClear
Hourly data recorded from KEWR, located miles away from Staten Island, New York







STORIES FROM OUR PARTNERS